Location: Miles
(41.4492°N, 81.6087°W)
Time: 03:34:45
(UTC+00:00)

S-56A Canister/Altair - Pass Details

Date: 25 September 2024
Orbit: 636 x 2487 km, 38.9° (Epoch: 11 October)

Event Time Altitude Azimuth Distance (km) Brightness Sun altitude
Rises 02:27:08 0° 275° (W) 3,400 11.6 -34.2°
Reaches altitude 10° 02:29:38 10° 264° (W) 2,647 10.8 -34.6°
Enters shadow 02:33:25 27° 228° (SW) 1,972 9.6 -35.2°
